Weather History for Big Piney, WY

Change the Weather History Date:

Wednesday, January 16, 2013

  Actual Average Record
Temperature  
Mean Temperature 15 °F 11 °F  
Max Temperature 32 °F 26 °F 41 °F (1999)
Min Temperature -2 °F -4 °F -24 °F (1989)
Degree Days  
Heating Degree Days 50 54  
Month to date heating degree days 996 864  
Since 1 July heating degree days 4718 5303  
Cooling Degree Days 0 0  
Month to date cooling degree days 0 0  
Year to date cooling degree days 0 0  
Moisture  
Dew Point 6 °F    
Average Humidity 67    
Maximum Humidity 87    
Minimum Humidity 47    
Precipitation  
Precipitation 0.00 in 0.01 in 0.03 in (1999)
Month to date precipitation 0.07 0.17  
Year to date precipitation 0.07 0.17  
Sea Level Pressure  
Sea Level Pressure 30.49 in    
Wind  
Wind Speed 14 mph (NNE)    
Max Wind Speed 24 mph    
Max Gust Speed 29 mph    
Visibility 10 miles    
Events      
T = Trace of Precipitation, MM = Missing Value Source: NWS Daily Summary

Daily Weather History Graph

Daily Weather History Graph

Search for Another Location

Airport:

Trip Planner

Search our weather history database for the weather conditions in past years. The results will help you decide how hot, cold, wet, or windy it might be!

Date:

Astronomy

Jan. 16, 2013 Rise Set
Actual Time 7:47 AM MST 5:14 PM MST
Civil Twilight 7:15 AM MST 5:45 PM MST
Nautical Twilight 6:41 AM MST 6:19 PM MST
Astronomical Twilight 6:07 AM MST 6:53 PM MST
Moon 10:16 AM MST (1/16) 11:18 PM MST (1/16)
Length of Visible Light 10h 29m
Length of Day
9h 27m
Waxing Crescent, 29% of the Moon is Illuminated
Jan 16
Waxing Crescent
Jan 18
First Quarter
Jan 26
Full
Feb 3
Last Quarter
Feb 10
New

Hourly Weather History & Observations

Time (MST) Temp. Windchill Dew Point Humidity Pressure Visibility Wind Dir Wind Speed Gust Speed Precip Events Conditions
12:53 AM 8.1 °F -8.4 °F 3.0 °F 80% 30.53 in 10.0 mi NNE 13.8 mph - N/A   Clear
1:53 AM -0.9 °F -12.7 °F -5.1 °F 83% 30.56 in 10.0 mi NNW 5.8 mph - N/A   Clear
2:53 AM 1.0 °F -10.3 °F -2.0 °F 87% 30.53 in 10.0 mi NNW 5.8 mph - N/A   Clear
3:53 AM 10.9 °F -4.1 °F 3.9 °F 73% 30.48 in 10.0 mi NNE 12.7 mph 18.4 mph N/A   Clear
4:53 AM 10.0 °F -9.1 °F 3.9 °F 76% 30.50 in 10.0 mi NNE 20.7 mph - N/A   Clear
5:53 AM 9.0 °F -7.9 °F 3.0 °F 77% 30.50 in 10.0 mi NNE 15.0 mph - N/A   Clear
6:53 AM 7.0 °F -6.6 °F 1.0 °F 77% 30.53 in 10.0 mi NE 9.2 mph - N/A   Clear
7:53 AM 10.9 °F -5.9 °F 3.0 °F 70% 30.53 in 10.0 mi NNE 16.1 mph - N/A   Clear
8:38 AM 15.8 °F -1.9 °F 5.0 °F 62% 30.32 in 10.0 mi NNE 21.9 mph - N/A   Clear
8:53 AM 17.1 °F 0.1 °F 6.1 °F 62% 30.52 in 10.0 mi NNE 20.7 mph - N/A   Clear
9:53 AM 19.0 °F 3.6 °F 7.0 °F 59% 30.53 in 10.0 mi NNE 18.4 mph - N/A   Clear
10:53 AM 21.0 °F 5.0 °F 8.1 °F 57% 30.54 in 10.0 mi NNE 21.9 mph 28.8 mph N/A   Clear
11:53 AM 24.8 °F 11.1 °F 10.4 °F 54% 30.33 in 10.0 mi NNE 18.4 mph - N/A   Clear
12:53 PM 28.4 °F 17.0 °F 12.2 °F 51% 30.32 in 10.0 mi North 15.0 mph - N/A   Clear
1:53 PM 30.0 °F 19.5 °F 12.0 °F 47% 30.48 in 10.0 mi North 13.8 mph - N/A   Clear
2:53 PM 30.9 °F 21.2 °F 12.9 °F 47% 30.48 in 10.0 mi North 12.7 mph - N/A   Clear
3:53 PM 30.0 °F 25.2 °F 12.0 °F 47% 30.45 in 10.0 mi NNE 4.6 mph - N/A   Clear
4:53 PM 25.0 °F 17.1 °F 10.0 °F 53% 30.50 in 10.0 mi East 6.9 mph - N/A   Clear
5:53 PM 14.0 °F -0.2 °F 3.9 °F 64% 30.56 in 10.0 mi ENE 12.7 mph - N/A   Clear
6:53 PM 18.0 °F 4.2 °F 3.9 °F 54% 30.56 in 10.0 mi NNE 13.8 mph - N/A   Clear
7:53 PM 17.1 °F 2.5 °F 5.0 °F 59% 30.56 in 10.0 mi NNE 15.0 mph - N/A   Clear
8:53 PM 18.0 °F 3.1 °F 5.0 °F 57% 30.53 in 10.0 mi NNE 16.1 mph - N/A   Clear
9:53 PM 17.1 °F 1.0 °F 5.0 °F 59% 30.52 in 10.0 mi NNE 18.4 mph - N/A   Clear
10:53 PM 18.0 °F 2.6 °F 6.1 °F 60% 30.51 in 10.0 mi NNE 17.3 mph - N/A   Clear
11:53 PM 18.0 °F 6.9 °F 6.1 °F 60% 30.50 in 10.0 mi NNE 9.2 mph - N/A   Clear